sat.trackr.live / text

‹ back to catalog

STARLINK-37589

NORAD 69839 · 2026-154W

PAYLOAD ACTIVE UNKNOWN

§ Identity

Operator
Country
US
Launch date
2026-07-05
Launch site
AFETR
Launch vehicle
Mass (kg)
RCS (m²)

Purposes: comms

External: N2YO · Heavens-Above · Gunter

§ Orbital elements

Epoch: 2026-09-20T04:20:17.172384Z

Period
93.85 min
Inclination
53.1590°
Eccentricity
0.0001589
Mean motion
15.34393555 rev/d
Perigee alt
461.6 km
Apogee alt
463.8 km
Semi-major
6,840.9 km
B*
6.4832e-4
RAAN
332.8939°
Arg perigee
62.9380°
Mean anomaly
297.1785°
Rev number
1,319

§ Raw data

STARLINK-375891 69839U 26154W   26263.18075431  .00021587  00000+0  64832-3 0  99992 69839  53.1590 332.8939 0001589  62.9380 297.1785 15.34393555 13194

JSON: /api/v1/satellites/69839 · /tle

For live sub-satellite position, see the globe view (requires WebGL).

§ Visibility from observer

Set your observer location to see the next 7 days of passes ≥ 10°. The values pass through the URL so the page stays shareable.

No JS? Fill the form by hand. The geolocation button needs JavaScript.